EW6576 Weather Reports


Display with metric or nautical units.
time (UTC)temp
F
wind
direction
speed
MPH
gust
MPH
rain 1hr
in
rain 24hr
in
rain mn
in
humidity
%
barometer
mb
20260509120830 59 119 0.0 0.0 0.00 0.00 0.00 98 1013.2
20260509120327 59 178 0.0 0.0 0.00 0.00 0.00 98 1013.2
20260509115826 59 194 0.0 0.0 0.00 0.00 0.00 98 1013.0
20260509115322 59 178 0.0 0.0 0.00 0.00 0.00 98 1013.2
20260509114820 59 178 0.0 0.0 0.00 0.00 0.00 98 1013.3
20260509114319 59 174 0.0 0.0 0.00 0.00 0.00 98 1013.2
20260509113818 59 128 0.0 0.0 0.00 0.00 0.00 98 1013.3
20260509113314 59 169 0.0 0.0 0.00 0.00 0.00 98 1013.3
20260509112811 59 139 0.0 0.0 0.00 0.00 0.00 98 1013.3
20260509112308 59 139 0.0 0.0 0.00 0.00 0.00 98 1013.2
20260509111805 59 156 0.0 0.0 0.00 0.00 0.00 98 1013.4
20260509111302 59 152 0.0 0.0 0.00 0.00 0.00 98 1013.4
20260509110759 59 153 0.0 0.0 0.00 0.00 0.00 98 1013.3
20260509110255 59 143 0.0 0.0 0.00 0.00 0.00 98 1013.1
20260509105754 59 168 0.0 0.0 0.00 0.00 0.00 98 1013.2
20260509105251 59 166 1.0 1.0 0.00 0.00 0.00 98 1013.5
20260509104748 59 153 3.0 3.0 0.00 0.00 0.00 98 1013.5
20260509104245 59 123 1.0 2.0 0.00 0.00 0.00 98 1013.4
20260509103743 59 115 2.0 2.0 0.00 0.00 0.00 98 1013.6
20260509103240 59 140 0.0 0.0 0.00 0.00 0.00 98 1013.5
20260509102738 59 143 0.0 0.0 0.00 0.00 0.00 98 1013.6
20260509102235 59 124 2.0 2.0 0.00 0.00 0.00 98 1013.5
20260509101731 59 126 1.0 1.0 0.00 0.00 0.00 98 1013.4
20260509101228 59 127 0.0 1.0 0.00 0.00 0.00 98 1013.5
20260509100725 59 132 0.0 1.0 0.00 0.00 0.00 98 1013.4
20260509100222 59 331 0.0 1.0 0.00 0.00 0.00 98 1013.7
20260509095719 59 70 2.0 2.0 0.00 0.00 0.00 98 1013.6
20260509095216 59 189 0.0 0.0 0.00 0.00 0.00 98 1013.5
20260509094713 59 129 3.0 3.0 0.00 0.00 0.00 98 1013.5
20260509094210 59 13 0.0 0.0 0.00 0.00 0.00 98 1013.3
20260509093708 59 97 1.0 1.0 0.00 0.00 0.00 98 1013.4
20260509093205 59 64 1.0 2.0 0.00 0.00 0.00 98 1013.4
20260509092703 59 177 0.0 0.0 0.00 0.00 0.00 98 1013.8
20260509092201 59 176 0.0 0.0 0.00 0.00 0.00 98 1013.7
20260509091659 59 168 1.0 1.0 0.00 0.00 0.00 98 1013.8
20260509091154 59 155 0.0 0.0 0.00 0.00 0.00 98 1013.7
20260509090653 59 115 0.0 1.0 0.00 0.00 0.00 97 1013.7
20260509090149 59 127 0.0 0.0 0.00 0.00 0.00 98 1013.6
20260509085647 59 174 0.0 0.0 0.00 0.00 0.00 98 1014.0
20260509085143 59 165 0.0 0.0 0.00 0.00 0.00 98 1014.0
20260509084641 59 160 0.0 0.0 0.00 0.00 0.00 98 1014.1
20260509084137 59 158 0.0 1.0 0.00 0.00 0.00 97 1013.9
20260509083635 59 185 0.0 0.0 0.00 0.00 0.00 97 1014.0
20260509083131 59 201 1.0 1.0 0.00 0.00 0.00 97 1014.0
20260509082628 59 149 0.0 0.0 0.00 0.00 0.00 97 1014.0
20260509082125 59 164 0.0 0.0 0.00 0.00 0.00 97 1014.2
20260509081622 59 162 0.0 0.0 0.00 0.00 0.00 97 1014.2
20260509081119 59 139 1.0 2.0 0.00 0.00 0.00 97 1014.2
20260509080618 59 127 0.0 0.0 0.00 0.00 0.00 97 1014.1
20260509080115 59 142 1.0 2.0 0.00 0.00 0.00 97 1014.2
20260509075613 59 74 1.0 1.0 0.00 0.00 0.00 97 1014.1
20260509075110 59 134 0.0 1.0 0.00 0.00 0.00 97 1014.2
20260509074607 59 102 1.0 1.0 0.00 0.00 0.00 97 1014.4
20260509074103 59 121 0.0 0.0 0.00 0.00 0.00 97 1014.3
20260509073600 59 340 0.0 0.0 0.00 0.00 0.00 97 1014.2
20260509073056 59 159 0.0 0.0 0.00 0.00 0.00 97 1014.4
20260509072553 59 159 0.0 0.0 0.00 0.00 0.00 97 1014.6
20260509072050 59 162 0.0 0.0 0.00 0.00 0.00 98 1014.5
20260509071547 59 172 0.0 0.0 0.00 0.00 0.00 98 1014.7
20260509071044 59 192 0.0 0.0 0.00 0.00 0.00 98 1014.5
20260509070542 59 197 1.0 1.0 0.00 0.00 0.00 98 1014.6
20260509070038 59 189 0.0 0.0 0.00 0.00 0.00 98 1014.4
20260509065533 59 226 1.0 1.0 0.00 0.00 0.00 98 1014.8
20260509065029 59 175 0.0 1.0 0.00 0.00 0.00 98 1014.7
20260509064527 59 140 1.0 1.0 0.00 0.00 0.00 98 1014.7
20260509064025 59 159 0.0 0.0 0.00 0.00 0.00 98 1014.7
20260509063520 59 159 0.0 0.0 0.00 0.00 0.00 98 1014.8
20260509063018 59 124 1.0 2.0 0.00 0.00 0.00 98 1014.6
20260509062515 58 182 0.0 0.0 0.00 0.00 0.00 98 1014.8
20260509062012 58 171 0.0 0.0 0.00 0.00 0.00 98 1014.8
20260509061509 58 176 1.0 1.0 0.00 0.00 0.00 98 1014.8
20260509061007 57 177 0.0 0.0 0.00 0.00 0.00 98 1014.7
20260509060504 57 136 0.0 1.0 0.00 0.00 0.00 98 1014.8
20260509055959 56 125 0.0 0.0 0.00 0.00 0.00 97 1014.7
20260509055455 57 125 0.0 1.0 0.00 0.00 0.00 97 1014.7
20260509054951 57 169 0.0 1.0 0.00 0.00 0.00 97 1014.8
20260509054448 57 177 1.0 1.0 0.00 0.00 0.00 97 1014.8
20260509053946 57 192 1.0 1.0 0.00 0.00 0.00 97 1014.6
20260509053444 57 142 0.0 0.0 0.00 0.00 0.00 97 1014.7
20260509052941 57 142 0.0 0.0 0.00 0.00 0.00 97 1014.8
20260509052438 58 143 0.0 0.0 0.00 0.00 0.00 97 1014.8
20260509051936 58 152 0.0 0.0 0.00 0.00 0.00 97 1014.9
20260509051434 58 160 0.0 0.0 0.00 0.00 0.00 96 1014.9
20260509050931 58 158 0.0 0.0 0.00 0.00 0.00 96 1015.0
20260509050427 58 160 0.0 0.0 0.00 0.00 0.00 96 1014.9
20260509045924 58 158 0.0 0.0 0.00 0.00 0.00 96 1014.7
20260509045421 58 157 0.0 0.0 0.00 0.00 0.00 96 1014.9
20260509044918 58 157 0.0 0.0 0.00 0.00 0.00 96 1014.9
20260509044416 58 166 1.0 1.0 0.00 0.00 0.00 96 1014.5
20260509043913 58 164 0.0 0.0 0.00 0.00 0.00 95 1014.8
20260509043408 58 152 0.0 0.0 0.00 0.00 0.00 95 1014.7
20260509042904 58 168 0.0 0.0 0.00 0.00 0.00 95 1014.8
20260509042401 59 166 0.0 0.0 0.00 0.00 0.00 95 1014.7
20260509041858 59 163 0.0 0.0 0.00 0.00 0.00 94 1014.6
20260509041354 59 162 0.0 0.0 0.00 0.00 0.00 94 1014.7
20260509040853 59 162 0.0 0.0 0.00 0.00 0.00 94 1014.8
20260509040351 59 175 0.0 0.0 0.00 0.00 0.00 94 1014.4
20260509035847 59 154 0.0 0.0 0.00 0.00 0.00 94 1014.5
20260509035344 60 155 0.0 0.0 0.00 0.00 0.00 94 1014.6
20260509034840 60 86 4.0 6.0 0.00 0.00 0.00 93 1014.3
20260509034338 60 127 1.0 2.0 0.00 0.00 0.00 93 1014.3
20260509033835 60 157 1.0 2.0 0.00 0.00 0.00 93 1014.3
20260509033332 60 117 2.0 3.0 0.00 0.00 0.00 92 1014.1
20260509032829 60 91 3.0 5.0 0.00 0.00 0.00 92 1014.0
20260509032326 60 120 1.0 1.0 0.00 0.00 0.00 92 1014.2
20260509031824 61 142 1.0 1.0 0.00 0.00 0.00 91 1014.1
20260509031321 61 122 1.0 3.0 0.00 0.00 0.00 91 1014.1
20260509030819 61 90 2.0 2.0 0.00 0.00 0.00 91 1014.3
20260509030316 61 158 0.0 1.0 0.00 0.00 0.00 90 1014.2
20260509025813 62 106 2.0 2.0 0.00 0.00 0.00 89 1014.0
20260509025308 62 109 1.0 1.0 0.00 0.00 0.00 89 1013.8
20260509024804 62 125 1.0 2.0 0.00 0.00 0.00 88 1014.0
20260509024300 62 108 2.0 3.0 0.00 0.00 0.00 87 1013.6
20260509023757 63 128 0.0 1.0 0.00 0.00 0.00 87 1013.8
20260509023255 63 153 2.0 2.0 0.00 0.00 0.00 86 1013.8
20260509022750 64 169 2.0 2.0 0.00 0.00 0.00 85 1013.7
20260509022249 64 156 1.0 2.0 0.00 0.00 0.00 84 1013.5
20260509021745 64 136 1.0 1.0 0.00 0.00 0.00 83 1013.4
20260509021242 65 96 4.0 5.0 0.00 0.00 0.00 83 1013.5
20260509020740 65 82 6.0 7.0 0.00 0.00 0.00 82 1013.3
20260509020238 65 128 3.0 5.0 0.00 0.00 0.00 81 1013.4
20260509015735 66 115 5.0 6.0 0.00 0.00 0.00 81 1013.4
20260509015234 66 97 7.0 9.0 0.00 0.00 0.00 80 1013.4
20260509014729 66 139 2.0 2.0 0.00 0.00 0.00 79 1013.4
20260509014227 67 105 7.0 8.0 0.00 0.00 0.00 78 1013.4
20260509013723 67 143 4.0 5.0 0.00 0.00 0.00 78 1013.4
20260509013219 67 149 1.0 2.0 0.00 0.00 0.00 77 1013.4
20260509012716 68 174 2.0 2.0 0.00 0.00 0.00 77 1013.4
20260509012212 68 129 5.0 6.0 0.00 0.00 0.00 76 1013.4
20260509011710 68 124 5.0 6.0 0.00 0.00 0.00 75 1013.2
20260509011208 69 116 4.0 7.0 0.00 0.00 0.00 74 1013.3
20260509010705 70 129 5.0 5.0 0.00 0.00 0.00 72 1013.4
20260509010201 70 94 3.0 3.0 0.00 0.00 0.00 73 1013.2
20260509005659 70 98 5.0 7.0 0.00 0.00 0.00 71 1013.3
20260509005155 70 97 4.0 6.0 0.00 0.00 0.00 71 1013.4
20260509004651 71 170 2.0 3.0 0.00 0.00 0.00 71 1013.0
20260509004148 71 75 3.0 6.0 0.00 0.00 0.00 70 1013.2
20260509003647 72 153 5.0 7.0 0.00 0.00 0.00 69 1013.2
20260509003144 71 114 3.0 3.0 0.00 0.00 0.00 70 1013.3
20260509002641 72 127 1.0 2.0 0.00 0.00 0.00 68 1013.4
20260509002138 71 96 4.0 7.0 0.00 0.00 0.00 69 1013.2
20260509001636 71 156 3.0 3.0 0.00 0.00 0.00 69 1013.4
20260509001131 73 135 3.0 3.0 0.00 0.00 0.00 66 1013.4
20260509000630 72 109 3.0 5.0 0.00 0.00 0.00 68 1013.5
20260509000126 72 160 2.0 3.0 0.00 0.00 0.00 68 1013.4
20260508235624 72 125 4.0 6.0 0.00 0.00 0.00 69 1013.7
20260508235120 72 120 5.0 7.0 0.00 0.00 0.00 68 1013.4
20260508234617 72 154 2.0 2.0 0.00 0.00 0.00 68 1013.7
20260508234113 72 165 3.0 5.0 0.00 0.00 0.00 68 1013.6
20260508233613 72 124 3.0 3.0 0.00 0.00 0.00 68 1013.6
20260508233110 71 113 3.0 3.0 0.00 0.00 0.00 69 1013.5
20260508232607 72 165 2.0 2.0 0.00 0.00 0.00 69 1013.6
20260508232104 72 203 4.0 6.0 0.00 0.00 0.00 69 1013.7
20260508231602 72 100 2.0 3.0 0.00 0.00 0.00 68 1013.8
20260508231058 73 179 5.0 6.0 0.00 0.00 0.00 68 1013.7
20260508230555 72 49 1.0 1.0 0.00 0.00 0.00 68 1013.5
20260508230051 73 190 4.0 5.0 0.00 0.00 0.00 68 1013.8
20260508225549 73 108 5.0 8.0 0.00 0.00 0.00 68 1013.8
20260508225045 74 127 5.0 6.0 0.00 0.00 0.00 66 1013.7
20260508224544 73 139 3.0 3.0 0.00 0.00 0.00 68 1013.8
20260508224041 73 200 4.0 5.0 0.00 0.00 0.00 68 1013.8
20260508223538 73 44 4.0 5.0 0.00 0.00 0.00 69 1013.8
20260508223035 74 121 5.0 8.0 0.00 0.00 0.00 68 1014.0
20260508222533 73 110 4.0 5.0 0.00 0.00 0.00 68 1014.0
20260508222029 73 135 2.0 3.0 0.00 0.00 0.00 67 1013.8
20260508221526 74 111 4.0 6.0 0.00 0.00 0.00 66 1013.9
20260508221021 75 191 6.0 8.0 0.00 0.00 0.00 66 1014.0
20260508220518 74 167 4.0 5.0 0.00 0.00 0.00 66 1013.9
20260508220015 74 188 4.0 6.0 0.00 0.00 0.00 65 1014.0
20260508215512 74 187 4.0 6.0 0.00 0.00 0.00 66 1014.1
20260508215008 75 139 4.0 7.0 0.00 0.00 0.00 64 1014.1
20260508214506 75 170 4.0 6.0 0.00 0.00 0.00 64 1014.4
20260508214002 75 150 4.0 5.0 0.00 0.00 0.00 64 1014.0
20260508213500 75 118 6.0 8.0 0.00 0.00 0.00 64 1014.2
20260508212954 76 161 7.0 8.0 0.00 0.00 0.00 62 1014.0
20260508212452 76 102 7.0 9.0 0.00 0.00 0.00 64 1014.1
20260508211948 77 126 7.0 8.0 0.00 0.00 0.00 62 1014.0
20260508211443 77 175 4.0 6.0 0.00 0.00 0.00 63 1014.0
20260508210940 77 109 3.0 5.0 0.00 0.00 0.00 62 1014.1
20260508210437 77 70 3.0 6.0 0.00 0.00 0.00 62 1014.1
20260508205933 77 97 3.0 3.0 0.00 0.00 0.00 62 1014.0
20260508205431 77 149 1.0 2.0 0.00 0.00 0.00 62 1014.2
20260508204927 78 100 4.0 6.0 0.00 0.00 0.00 61 1014.2
20260508204424 78 102 3.0 5.0 0.00 0.00 0.00 61 1014.1
20260508203919 77 92 7.0 9.0 0.00 0.00 0.00 62 1013.9
20260508203416 77 153 7.0 9.0 0.00 0.00 0.00 62 1013.9
20260508202912 78 200 3.0 6.0 0.00 0.00 0.00 61 1014.2
20260508202410 78 162 3.0 6.0 0.00 0.00 0.00 62 1014.1
20260508201907 79 152 4.0 6.0 0.00 0.00 0.00 60 1014.2
20260508201403 77 115 2.0 2.0 0.00 0.00 0.00 60 1014.3
20260508200900 78 93 4.0 7.0 0.00 0.00 0.00 61 1014.3
20260508200357 78 124 4.0 7.0 0.00 0.00 0.00 61 1014.3
20260508195852 78 189 1.0 2.0 0.00 0.00 0.00 61 1014.4
20260508195349 77 73 2.0 3.0 0.00 0.00 0.00 63 1014.1
20260508194845 77 120 5.0 7.0 0.00 0.00 0.00 63 1014.7
20260508194342 77 152 0.0 1.0 0.00 0.00 0.00 61 1014.8
20260508193839 77 132 6.0 6.0 0.00 0.00 0.00 61 1014.8
20260508193336 77 140 3.0 5.0 0.00 0.00 0.00 63 1015.0
20260508192832 77 102 1.0 1.0 0.00 0.00 0.00 63 1014.8
20260508192330 77 75 2.0 3.0 0.00 0.00 0.00 62 1014.7
20260508191827 77 56 1.0 1.0 0.00 0.00 0.00 62 1015.1
20260508191324 75 342 2.0 2.0 0.00 0.00 0.00 63 1015.3
20260508190821 77 0 1.0 2.0 0.00 0.00 0.00 62 1015.2
20260508190317 77 241 1.0 1.0 0.00 0.00 0.00 63 1015.4
20260508185814 75 195 0.0 0.0 0.00 0.00 0.00 65 1015.2
20260508185311 74 101 1.0 2.0 0.00 0.00 0.00 67 1015.5
20260508184808 73 227 1.0 2.0 0.00 0.00 0.00 67 1015.5
20260508184305 72 26 3.0 3.0 0.00 0.00 0.00 69 1015.4
20260508183803 72 201 3.0 3.0 0.00 0.00 0.00 71 1015.7
20260508183259 73 16 1.0 2.0 0.00 0.00 0.00 70 1015.5
20260508182755 71 265 1.0 1.0 0.00 0.00 0.00 72 1015.5
20260508182252 70 45 1.0 1.0 0.00 0.00 0.00 74 1015.7
20260508181747 70 145 1.0 1.0 0.00 0.00 0.00 75 1015.8
20260508181244 68 115 1.0 1.0 0.00 0.00 0.00 76 1015.9
20260508180741 69 7 3.0 3.0 0.00 0.00 0.00 76 1015.9
20260508180238 68 322 1.0 1.0 0.00 0.00 0.00 77 1015.9
20260508175734 67 105 2.0 2.0 0.00 0.00 0.00 78 1015.8
20260508175231 66 47 2.0 3.0 0.00 0.00 0.00 80 1016.1
20260508174729 66 30 2.0 2.0 0.00 0.00 0.00 81 1016.0
20260508174226 66 130 1.0 2.0 0.00 0.00 0.00 81 1016.1
20260508173722 65 95 3.0 3.0 0.00 0.00 0.00 82 1015.9
20260508173218 65 102 1.0 1.0 0.00 0.00 0.00 82 1016.2
20260508172715 65 100 1.0 1.0 0.00 0.00 0.00 82 1016.1
20260508172213 64 274 0.0 1.0 0.00 0.00 0.00 84 1016.3
20260508171709 63 357 1.0 1.0 0.00 0.00 0.00 86 1016.1
20260508171205 63 135 1.0 1.0 0.00 0.00 0.00 87 1016.2
20260508170702 62 326 2.0 2.0 0.00 0.00 0.00 88 1016.1
20260508170200 62 49 1.0 1.0 0.00 0.00 0.00 88 1016.1
20260508165657 62 62 1.0 2.0 0.00 0.00 0.00 88 1016.3
20260508165154 62 102 0.0 1.0 0.00 0.00 0.00 88 1016.5
20260508164650 62 261 1.0 1.0 0.00 0.00 0.00 89 1016.2
20260508164147 62 217 1.0 2.0 0.00 0.00 0.00 89 1016.2
20260508163645 61 73 1.0 2.0 0.00 0.00 0.00 90 1016.5
20260508163142 62 30 1.0 1.0 0.00 0.00 0.00 90 1016.3
20260508162637 62 126 0.0 0.0 0.00 0.00 0.00 90 1016.7
20260508162135 61 116 0.0 0.0 0.00 0.00 0.00 90 1016.6
20260508161632 61 167 1.0 1.0 0.00 0.00 0.00 90 1016.8
20260508161129 61 205 1.0 1.0 0.00 0.00 0.00 91 1016.7
20260508160628 61 196 1.0 2.0 0.00 0.00 0.00 91 1016.5
20260508160125 61 183 0.0 0.0 0.00 0.00 0.00 91 1016.6
20260508155622 61 83 0.0 1.0 0.00 0.00 0.00 91 1016.6
20260508155119 61 179 0.0 0.0 0.00 0.00 0.00 92 1016.7
20260508154615 61 125 0.0 0.0 0.00 0.00 0.00 92 1016.5
20260508154107 60 192 0.0 0.0 0.00 0.00 0.00 93 1016.2
20260508153604 60 174 0.0 0.0 0.00 0.00 0.00 93 1016.6
20260508153100 60 159 0.0 0.0 0.00 0.00 0.00 94 1016.5
20260508152557 60 129 0.0 0.0 0.00 0.00 0.00 94 1016.3
20260508152052 60 152 0.0 0.0 0.00 0.00 0.00 94 1016.5
20260508151549 60 156 0.0 0.0 0.00 0.00 0.00 95 1016.7
20260508151046 60 156 0.0 0.0 0.00 0.00 0.00 95 1016.6
20260508150543 59 135 0.0 0.0 0.00 0.00 0.00 95 1016.8
20260508150039 59 127 1.0 1.0 0.00 0.00 0.00 95 1016.3
20260508145536 59 144 0.0 0.0 0.00 0.00 0.00 95 1016.6
20260508145032 59 139 1.0 1.0 0.00 0.00 0.00 95 1016.6
20260508144530 59 126 2.0 2.0 0.00 0.00 0.00 95 1016.6
20260508144027 59 113 2.0 2.0 0.00 0.00 0.00 95 1016.2
20260508143525 59 127 1.0 1.0 0.00 0.00 0.00 95 1016.3
20260508143021 59 124 1.0 1.0 0.00 0.00 0.00 95 1016.1
20260508142518 59 94 2.0 2.0 0.00 0.00 0.00 95 1016.2
20260508142015 59 134 1.0 1.0 0.00 0.00 0.00 95 1016.2
20260508141511 59 152 0.0 0.0 0.00 0.00 0.00 95 1016.6
20260508141009 59 117 0.0 0.0 0.00 0.00 0.00 95 1016.3
20260508140506 59 122 0.0 0.0 0.00 0.00 0.00 95 1015.8
20260508140002 59 178 1.0 1.0 0.00 0.00 0.00 95 1016.2
20260508135458 59 167 0.0 0.0 0.00 0.00 0.00 95 1016.1
20260508134954 59 181 0.0 0.0 0.00 0.00 0.00 95 1016.0
20260508134451 59 183 0.0 0.0 0.00 0.00 0.00 95 1016.1
20260508133948 59 78 0.0 0.0 0.00 0.00 0.00 95 1016.1
20260508133445 59 128 0.0 0.0 0.00 0.00 0.00 95 1016.0
20260508132942 59 56 1.0 1.0 0.00 0.00 0.00 95 1016.1
20260508132440 59 351 1.0 2.0 0.00 0.00 0.00 95 1016.0
20260508131937 59 188 0.0 0.0 0.00 0.00 0.00 95 1016.1
20260508131432 59 176 0.0 0.0 0.00 0.00 0.00 95 1015.8
20260508130929 59 189 0.0 0.0 0.00 0.00 0.00 95 1015.9
20260508130426 59 134 0.0 1.0 0.00 0.00 0.00 95 1016.0
20260508125922 59 5 0.0 1.0 0.00 0.00 0.00 95 1015.6
20260508125418 59 80 1.0 1.0 0.00 0.00 0.00 95 1015.9
20260508124916 59 142 0.0 0.0 0.00 0.00 0.00 95 1015.7
20260508124413 59 187 0.0 0.0 0.00 0.00 0.00 95 1015.7
20260508123911 59 178 0.0 0.0 0.00 0.00 0.00 95 1015.7
20260508123410 59 204 1.0 1.0 0.00 0.00 0.00 95 1015.8
20260508122905 59 127 2.0 2.0 0.00 0.00 0.00 95 1015.6
20260508122403 59 125 0.0 0.0 0.00 0.00 0.00 95 1015.8
20260508121900 59 104 1.0 1.0 0.00 0.00 0.00 94 1015.6
20260508121358 59 124 0.0 1.0 0.00 0.00 0.00 94 1015.6